This is the latest recevied weather packets stored in our database for station/object HOWARD. If no packets are shown the sender has not sent any weather packets the latest 10 day(s).
| Time | Temp. | Humidity | Pressure | Rain* | Wind** | Luminosity | Snow |
|---|---|---|---|---|---|---|---|
| 1778040711 | 3.89° C | 75% | 1011.7 hPa | 0 mm | - | - | - |
| 1778040109 | 3.89° C | 75% | 1011.6 hPa | 0 mm | - | - | - |
| 1778039509 | 4.44° C | 75% | 1011.4 hPa | 0 mm | - | - | - |
| 1778038909 | 4.44° C | 76% | 1011.3 hPa | 0 mm | - | - | - |
| 1778038342 | 4.44° C | 76% | 1011.3 hPa | 0 mm | - | - | - |
| 1778038309 | 4.44° C | 76% | 1011.3 hPa | 0 mm | - | - | - |
| 1778037709 | 5° C | 75% | 1011.2 hPa | 0 mm | - | - | - |
| 1778037109 | 5° C | 75% | 1011.1 hPa | 0 mm | - | - | - |
| 1778036509 | 5° C | 75% | 1011 hPa | 0 mm | - | - | - |
| 1778035909 | 5° C | 74% | 1011 hPa | 0 mm | - | - | - |
| 1778035309 | 5.56° C | 75% | 1010.9 hPa | 0 mm | - | - | - |
| 1778034709 | 5.56° C | 74% | 1010.9 hPa | 0 mm | - | - | - |
| 1778034109 | 6.11° C | 72% | 1010.8 hPa | 0 mm | - | - | - |
| 1778033509 | 6.67° C | 72% | 1010.7 hPa | 0 mm | - | - | - |
| 1778032951 | 7.22° C | 70% | 1010.6 hPa | 0 mm | - | - | - |
| 1778032909 | 7.22° C | 70% | 1010.6 hPa | 0 mm | - | - | - |
| 1778032308 | 6.67° C | 71% | 1010.6 hPa | 0 mm | - | - | - |
| 1778031709 | 6.11° C | 72% | 1010.6 hPa | 0 mm | - | - | - |
| 1778031109 | 6.11° C | 73% | 1010.6 hPa | 0 mm | - | - | - |
| 1778030509 | 6.67° C | 70% | 1010.5 hPa | 0 mm | - | - | - |
| 1778029909 | 7.22° C | 69% | 1011.2 hPa | 0 mm | - | - | - |
| 1778029356 | 7.22° C | 69% | 1011 hPa | 0 mm | - | - | - |
| 1778029308 | 7.22° C | 69% | 1011 hPa | 0 mm | - | - | - |
| 1778028709 | 6.67° C | 68% | 1011.2 hPa | 0 mm | - | - | - |
| 1778028108 | 7.22° C | 65% | 1010.9 hPa | 0 mm | - | - | - |
* Rain latest hour (hover to see other rain measurements)
** Current wind speed in m/s (hover to see current wind gust speed)